YUBILEINY (RS-30) (32953 NORAD) Tracking and Keplerian Element Data

This shows tracking and keplerian element data for the satellite.

Feedback or suggestion? Click here.




ElementValue
Catalog32953
NameYUBILEINY (RS-30)
Epoch Orbit65780
Epoch Day325.15847646
Epoch Year2022
RAAN86.48
Inclination82.5013
Eccentricity0.0018586
Argument of Perigee277.6806
Mean Anonmoly82.2165
Mean Motion12.43115379
Decay Rate2.4E-07
L11 32953U 08025A 22325.15847646 .00000024 00000+0 10000-3 0 9991
L22 32953 82.5013 86.4800 0018586 277.6806 82.2165 12.43115379657809



Live tracking and technical data element details for YUBILEINY (RS-30) (NORAD 32953). YUBILEINY (RS-30) can be tracked NOW for your location showing map with azimuth and elevation plus other details from your city location.







IsCatalogInMostPopularTable: catalog: 32953, numindb: 360
Update: records affected: 1



GetName: 32953 YUBILEINY (RS-30)

Hit Count: updated at: Fri, 02 Dec 2022 13:55:02 GMT